Hourly Weather Chambord

Today, 25 June, Friday

Time Temperature Precipitation Wind Pressure Humidity
00:00 +14°C° 0 mm 1 mps 758 mmHg 80%
01:00 +13°C° 0 mm 1 mps 758 mmHg 82%
02:00 +12°C° 0 mm 1 mps 758 mmHg 84%
03:00 +11°C° 0 mm 0 mps 757 mmHg 87%
04:00 +13°C° 0 mm 1 mps 758 mmHg 84%
05:00 +14°C° 0 mm 1 mps 758 mmHg 80%
06:00 +15°C° 0 mm 1 mps 758 mmHg 77%
07:00 +16°C° 0 mm 1 mps 757 mmHg 72%
08:00 +17°C° 0 mm 2 mps 757 mmHg 68%
09:00 +19°C° 0 mm 3 mps 757 mmHg 63%
10:00 +20°C° 0 mm 3 mps 757 mmHg 59%
11:00 +21°C° 0 mm 3 mps 757 mmHg 56%
12:00 +22°C° 0 mm 3 mps 756 mmHg 53%
13:00 +22°C° 0 mm 3 mps 756 mmHg 54%
14:00 +22°C° 0 mm 3 mps 756 mmHg 56%
15:00 +22°C° 0 mm 3 mps 755 mmHg 58%
16:00 +23°C° 0.1 mm 2 mps 755 mmHg 64%
17:00 +21°C° 0.1 mm 2 mps 755 mmHg 70%
18:00 +20°C° 0.1 mm 2 mps 755 mmHg 76%
19:00 +19°C° 0.3 mm 2 mps 755 mmHg 83%
20:00 +17°C° 0.3 mm 2 mps 755 mmHg 89%
21:00 +16°C° 0.3 mm 2 mps 755 mmHg 95%
22:00 +16°C° 0.2 mm 2 mps 755 mmHg 96%
23:00 +15°C° 0.2 mm 1 mps 755 mmHg 96%

Tomorrow, 26 June, Saturday

Time Temperature Precipitation Wind Pressure Humidity
00:00 +15°C° 0.2 mm 1 mps 755 mmHg 97%
01:00 +15°C° 0.2 mm 1 mps 755 mmHg 97%
02:00 +15°C° 0.2 mm 1 mps 755 mmHg 97%
03:00 +15°C° 0.2 mm 1 mps 755 mmHg 97%
04:00 +15°C° 0.1 mm 1 mps 755 mmHg 96%
05:00 +14°C° 0.1 mm 0 mps 755 mmHg 96%
06:00 +14°C° 0.1 mm 0 mps 755 mmHg 96%
07:00 +16°C° 0.1 mm 1 mps 755 mmHg 94%
08:00 +16°C° 0.1 mm 1 mps 755 mmHg 92%
09:00 +18°C° 0.1 mm 1 mps 755 mmHg 90%
10:00 +20°C° 0.1 mm 1 mps 754 mmHg 83%
11:00 +21°C° 0.1 mm 1 mps 754 mmHg 76%
12:00 +23°C° 0.1 mm 2 mps 754 mmHg 69%
13:00 +23°C° 0.3 mm 2 mps 753 mmHg 68%
14:00 +24°C° 0.3 mm 2 mps 753 mmHg 67%
15:00 +24°C° 0.3 mm 3 mps 752 mmHg 66%
16:00 +24°C° 0.2 mm 2 mps 752 mmHg 67%
17:00 +24°C° 0.2 mm 2 mps 752 mmHg 69%
18:00 +24°C° 0.2 mm 2 mps 751 mmHg 70%
19:00 +23°C° 0 mm 2 mps 751 mmHg 74%
20:00 +20°C° 0 mm 3 mps 751 mmHg 78%
21:00 +19°C° 0 mm 3 mps 751 mmHg 81%
22:00 +19°C° 0 mm 3 mps 751 mmHg 83%
23:00 +18°C° 0 mm 3 mps 751 mmHg 86%

Day after tomorrow, 27 June, Sunday

Time Temperature Precipitation Wind Pressure Humidity
00:00 +18°C° 0 mm 3 mps 751 mmHg 88%
01:00 +18°C° 0.1 mm 2 mps 751 mmHg 89%
02:00 +17°C° 0.1 mm 2 mps 751 mmHg 91%
03:00 +17°C° 0.1 mm 2 mps 751 mmHg 92%
04:00 +17°C° 0.1 mm 2 mps 751 mmHg 93%
05:00 +18°C° 0.1 mm 1 mps 750 mmHg 93%
06:00 +18°C° 0.1 mm 1 mps 750 mmHg 94%
07:00 +18°C° 0.2 mm 2 mps 751 mmHg 92%
08:00 +18°C° 0.2 mm 2 mps 751 mmHg 90%
09:00 +19°C° 0.2 mm 3 mps 751 mmHg 89%
10:00 +19°C° 0.6 mm 3 mps 751 mmHg 90%
11:00 +19°C° 0.6 mm 3 mps 751 mmHg 90%
12:00 +20°C° 0.6 mm 4 mps 751 mmHg 91%
13:00 +20°C° 0.5 mm 3 mps 751 mmHg 89%
14:00 +21°C° 0.5 mm 3 mps 751 mmHg 86%
15:00 +21°C° 0.5 mm 3 mps 751 mmHg 84%
16:00 +20°C° 0.5 mm 3 mps 751 mmHg 87%
17:00 +20°C° 0.5 mm 2 mps 751 mmHg 90%
18:00 +19°C° 0.5 mm 2 mps 751 mmHg 93%
19:00 +18°C° 0.3 mm 2 mps 751 mmHg 94%
20:00 +17°C° 0.3 mm 3 mps 751 mmHg 94%
21:00 +16°C° 0.3 mm 3 mps 752 mmHg 95%
22:00 +14°C° 0.2 mm 3 mps 752 mmHg 95%
23:00 +15°C° 0.2 mm 2 mps 752 mmHg 96%

28 June, Monday

Time Temperature Precipitation Wind Pressure Humidity
00:00 +14°C° 0.2 mm 2 mps 752 mmHg 96%
01:00 +14°C° 0 mm 2 mps 752 mmHg 96%
02:00 +13°C° 0 mm 2 mps 753 mmHg 96%
03:00 +12°C° 0 mm 3 mps 753 mmHg 97%
04:00 +13°C° 0.2 mm 2 mps 753 mmHg 96%
05:00 +13°C° 0.2 mm 2 mps 753 mmHg 95%
06:00 +13°C° 0.2 mm 2 mps 753 mmHg 94%
07:00 +14°C° 0.3 mm 2 mps 753 mmHg 89%
08:00 +15°C° 0.3 mm 2 mps 753 mmHg 83%
09:00 +16°C° 0.3 mm 2 mps 753 mmHg 77%
10:00 +17°C° 0.1 mm 2 mps 753 mmHg 73%
11:00 +18°C° 0.1 mm 2 mps 753 mmHg 69%
12:00 +19°C° 0.1 mm 2 mps 753 mmHg 66%
13:00 +19°C° 0.2 mm 2 mps 753 mmHg 65%
14:00 +19°C° 0.2 mm 2 mps 752 mmHg 64%
15:00 +20°C° 0.2 mm 3 mps 752 mmHg 64%
16:00 +18°C° 2.2 mm 3 mps 752 mmHg 74%
17:00 +15°C° 2.2 mm 4 mps 752 mmHg 84%
18:00 +13°C° 2.2 mm 4 mps 752 mmHg 94%
19:00 +12°C° 1.1 mm 4 mps 753 mmHg 95%
20:00 +12°C° 1.1 mm 3 mps 753 mmHg 96%
21:00 +12°C° 1.1 mm 2 mps 753 mmHg 97%
22:00 +12°C° 0 mm 2 mps 753 mmHg 97%
23:00 +10°C° 0 mm 2 mps 753 mmHg 96%

29 June, Tuesday

Time Temperature Precipitation Wind Pressure Humidity
00:00 +10°C° 0 mm 2 mps 753 mmHg 96%
01:00 +10°C° 0.1 mm 2 mps 753 mmHg 96%
02:00 +10°C° 0.1 mm 2 mps 753 mmHg 96%
03:00 +10°C° 0.1 mm 2 mps 752 mmHg 97%
04:00 +12°C° 0.2 mm 2 mps 752 mmHg 97%
05:00 +12°C° 0.2 mm 2 mps 752 mmHg 97%
06:00 +12°C° 0.2 mm 3 mps 752 mmHg 97%
07:00 +12°C° 0.8 mm 3 mps 753 mmHg 97%
08:00 +12°C° 0.8 mm 3 mps 753 mmHg 96%
09:00 +12°C° 0.8 mm 4 mps 753 mmHg 96%
10:00 +13°C° 0.3 mm 4 mps 753 mmHg 91%
11:00 +15°C° 0.3 mm 4 mps 753 mmHg 86%
12:00 +17°C° 0.3 mm 4 mps 753 mmHg 81%
13:00 +17°C° 0.6 mm 4 mps 753 mmHg 82%
14:00 +17°C° 0.6 mm 4 mps 753 mmHg 83%
15:00 +15°C° 0.6 mm 4 mps 753 mmHg 84%
16:00 +16°C° 0.6 mm 3 mps 753 mmHg 88%
17:00 +14°C° 0.6 mm 3 mps 753 mmHg 92%
18:00 +14°C° 0.6 mm 2 mps 753 mmHg 95%
19:00 +14°C° 0.2 mm 2 mps 753 mmHg 96%
20:00 +14°C° 0.2 mm 1 mps 753 mmHg 97%
21:00 +14°C° 0.2 mm 1 mps 753 mmHg 97%
22:00 +14°C° 0.1 mm 1 mps 753 mmHg 97%
23:00 +14°C° 0.1 mm 1 mps 753 mmHg 98%

30 June, Wednesday

Time Temperature Precipitation Wind Pressure Humidity
00:00 +14°C° 0.1 mm 1 mps 753 mmHg 98%
01:00 +14°C° 0.1 mm 2 mps 753 mmHg 98%
02:00 +14°C° 0.1 mm 2 mps 752 mmHg 98%
03:00 +14°C° 0.1 mm 2 mps 752 mmHg 98%
04:00 +14°C° 0.1 mm 2 mps 752 mmHg 97%
05:00 +14°C° 0.1 mm 2 mps 753 mmHg 97%
06:00 +14°C° 0.1 mm 2 mps 753 mmHg 96%
07:00 +14°C° 0.2 mm 2 mps 753 mmHg 93%
08:00 +14°C° 0.2 mm 3 mps 753 mmHg 91%
09:00 +16°C° 0.2 mm 3 mps 753 mmHg 88%
10:00 +17°C° 0.4 mm 3 mps 753 mmHg 84%
11:00 +18°C° 0.4 mm 3 mps 753 mmHg 81%
12:00 +18°C° 0.4 mm 3 mps 753 mmHg 78%
13:00 +18°C° 0.6 mm 4 mps 753 mmHg 79%
14:00 +18°C° 0.6 mm 4 mps 753 mmHg 81%
15:00 +17°C° 0.6 mm 5 mps 753 mmHg 82%
16:00 +16°C° 0.4 mm 5 mps 754 mmHg 86%
17:00 +16°C° 0.4 mm 5 mps 754 mmHg 89%
18:00 +15°C° 0.4 mm 4 mps 754 mmHg 93%
19:00 +14°C° 0.2 mm 4 mps 755 mmHg 94%
20:00 +14°C° 0.2 mm 3 mps 755 mmHg 96%
21:00 +13°C° 0.2 mm 3 mps 756 mmHg 97%
22:00 +13°C° 0.3 mm 3 mps 756 mmHg 97%
23:00 +13°C° 0.3 mm 3 mps 756 mmHg 97%
Show more

We Need Your Consent

Meteoprog and our Service Providers may store and access personal data such as cookies, device identifiers or other similar technologies on your device and process such data to personalise content and ads, as well as provide social media features and to analyse the traffic.

  • Store and/or access information on your device

    Cookies, device identifiers or other information can be stored or accessed on your device for the purposes indicated above.

  • Personalised ads and content, ad and content measurement, audience insights, and products development

    Ads and content can be personalised based on a profile. More data can be added to better personalise ads and content. Ad and content performance can be measured. Insights about the audience who saw the ads and content can be derived. Such data can be used to develop or improve user’s experience, systems and software.

By clicking ‘I Agree’ you will allow the use of indicated cookies, device identifiers, web beacons or other similar technologies. Your settings can be changed in the browser on your device.

For certain purposes, legitimate interests may be relied on, rather than consent. You can read more about this in our Privacy and Cookie Policy.